Total_Precipitation_Accumulation
0.72 0.74 0.66 0.58 0.50 0.38 0.32 0.32 0.36 0.35 0.31 0.19 0.07 0.02 0.01 0.00 0.00 0.00 0.00 0.00 0.00 0.00 0.01 0.01 0.00 0.00 0.00 0.00 0.00 0.01 0.01 0.01 0.02 0.04 0.10 0.17 0.23 0.25
0.75 0.81 0.80 0.77 0.72 0.60 0.46 0.36 0.31 0.36 0.37 0.28 0.14 0.05 0.04 0.03 0.02 0.00 0.00 0.00 0.00 0.00 0.00 0.01 0.01 0.00 0.00 0.00 0.00 0.00 0.00 0.00 0.01 0.03 0.15 0.37 0.46 0.42
0.67 0.75 0.85 0.86 0.89 0.82 0.72 0.59 0.46 0.42 0.45 0.34 0.15 0.07 0.06 0.05 0.04 0.02 0.01 0.00 0.00 0.00 0.00 0.01 0.01 0.01 0.00 0.00 0.00 0.00 0.00 0.00 0.01 0.03 0.09 0.24 0.52 0.61
0.61 0.62 0.69 0.75 0.82 0.86 0.85 0.80 0.70 0.56 0.53 0.48 0.26 0.11 0.08 0.06 0.04 0.03 0.02 0.01 0.00 0.00 0.00 0.00 0.01 0.01 0.00 0.00 0.00 0.00 0.00 0.00 0.01 0.02 0.04 0.06 0.14 0.27
0.45 0.46 0.49 0.54 0.61 0.71 0.79 0.79 0.77 0.71 0.63 0.59 0.41 0.22 0.13 0.08 0.04 0.02 0.01 0.01 0.01 0.00 0.00 0.00 0.00 0.00 0.00 0.00 0.00 0.00 0.00 0.00 0.00 0.00 0.01 0.02 0.02 0.05
0.29 0.28 0.30 0.32 0.37 0.47 0.61 0.72 0.78 0.79 0.78 0.73 0.55 0.32 0.21 0.14 0.06 0.03 0.02 0.01 0.01 0.00 0.00 0.00 0.00 0.00 0.00 0.00 0.00 0.00 0.00 0.00 0.00 0.00 0.00 0.00 0.00 0.01
0.18 0.14 0.15 0.20 0.24 0.28 0.35 0.48 0.65 0.73 0.75 0.76 0.66 0.45 0.26 0.18 0.11 0.07 0.04 0.03 0.01 0.00 0.00 0.00 0.00 0.00 0.00 0.00 0.00 0.00 0.00 0.00 0.00 0.00 0.00 0.00 0.00 0.00
0.10 0.09 0.11 0.17 0.18 0.16 0.18 0.26 0.40 0.52 0.60 0.66 0.68 0.56 0.39 0.26 0.20 0.14 0.07 0.03 0.01 0.01 0.00 0.00 0.00 0.00 0.00 0.00 0.00 0.00 0.00 0.00 0.00 0.00 0.00 0.00 0.00 0.00
0.12 0.12 0.14 0.14 0.18 0.15 0.13 0.15 0.18 0.22 0.33 0.48 0.55 0.55 0.59 0.45 0.30 0.18 0.10 0.05 0.03 0.02 0.01 0.00 0.00 0.00 0.00 0.00 0.00 0.00 0.00 0.00 0.00 0.00 0.00 0.00 0.00 0.00
0.16 0.15 0.17 0.14 0.13 0.16 0.21 0.23 0.24 0.22 0.29 0.23 0.29 0.51 0.56 0.49 0.35 0.26 0.20 0.13 0.07 0.02 0.01 0.00 0.00 0.00 0.00 0.00 0.00 0.00 0.00 0.00 0.00 0.00 0.00 0.00 0.00 0.00
0.15 0.15 0.15 0.13 0.15 0.20 0.30 0.41 0.39 0.35 0.46 0.46 0.43 0.42 0.42 0.38 0.35 0.32 0.26 0.18 0.11 0.04 0.03 0.01 0.00 0.00 0.00 0.00 0.00 0.00 0.00 0.00 0.00 0.00 0.00 0.00 0.00 0.00
0.19 0.23 0.27 0.22 0.23 0.20 0.22 0.32 0.35 0.34 0.33 0.36 0.33 0.26 0.19 0.19 0.23 0.23 0.25 0.24 0.19 0.10 0.06 0.04 0.01 0.01 0.00 0.00 0.00 0.00 0.00 0.00 0.00 0.00 0.00 0.00 0.00 0.00
0.28 0.35 0.35 0.33 0.23 0.18 0.17 0.21 0.24 0.29 0.32 0.34 0.35 0.29 0.18 0.14 0.13 0.14 0.16 0.19 0.22 0.21 0.12 0.09 0.05 0.04 0.02 0.01 0.01 0.01 0.01 0.00 0.00 0.00 0.00 0.00 0.00 0.00
0.32 0.32 0.29 0.28 0.20 0.14 0.12 0.14 0.13 0.13 0.19 0.27 0.30 0.28 0.26 0.24 0.22 0.19 0.17 0.15 0.16 0.20 0.19 0.15 0.11 0.08 0.05 0.04 0.03 0.03 0.02 0.01 0.01 0.00 0.00 0.00 0.00 0.00
0.24 0.22 0.19 0.14 0.10 0.08 0.09 0.09 0.08 0.10 0.15 0.19 0.23 0.26 0.28 0.31 0.32 0.30 0.26 0.20 0.17 0.16 0.14 0.16 0.16 0.15 0.12 0.09 0.07 0.06 0.06 0.05 0.03 0.02 0.01 0.01 0.00 0.00
0.16 0.11 0.08 0.05 0.06 0.08 0.08 0.06 0.08 0.13 0.17 0.19 0.22 0.26 0.30 0.30 0.31 0.32 0.33 0.33 0.30 0.28 0.25 0.24 0.23 0.23 0.23 0.21 0.17 0.12 0.11 0.10 0.09 0.09 0.07 0.05 0.03 0.02
0.29 0.19 0.13 0.10 0.09 0.11 0.12 0.11 0.11 0.13 0.15 0.16 0.17 0.19 0.21 0.26 0.30 0.29 0.28 0.29 0.29 0.28 0.30 0.33 0.33 0.32 0.31 0.31 0.31 0.27 0.23 0.21 0.19 0.17 0.15 0.11 0.08 0.06
0.29 0.35 0.36 0.37 0.34 0.32 0.28 0.22 0.18 0.17 0.17 0.19 0.19 0.19 0.20 0.22 0.27 0.30 0.27 0.26 0.25 0.23 0.22 0.24 0.27 0.31 0.31 0.28 0.24 0.23 0.26 0.26 0.26 0.27 0.24 0.19 0.14 0.13
0.31 0.45 0.45 0.42 0.36 0.31 0.28 0.25 0.21 0.16 0.14 0.16 0.24 0.29 0.28 0.28 0.31 0.33 0.31 0.27 0.25 0.25 0.24 0.21 0.19 0.20 0.23 0.22 0.21 0.22 0.21 0.21 0.22 0.21 0.20 0.19 0.16 0.17
0.31 0.37 0.36 0.33 0.26 0.18 0.13 0.10 0.10 0.08 0.07 0.07 0.10 0.17 0.28 0.35 0.41 0.43 0.47 0.48 0.45 0.40 0.34 0.28 0.21 0.17 0.16 0.15 0.13 0.11 0.13 0.14 0.16 0.15 0.14 0.14 0.13 0.14
0.14 0.14 0.14 0.13 0.11 0.08 0.05 0.04 0.03 0.03 0.03 0.04 0.04 0.06 0.12 0.23 0.36 0.45 0.49 0.53 0.52 0.50 0.48 0.42 0.38 0.38 0.29 0.25 0.20 0.13 0.09 0.11 0.11 0.10 0.09 0.10 0.11 0.11
0.06 0.06 0.05 0.05 0.04 0.04 0.04 0.03 0.03 0.03 0.03 0.05 0.08 0.11 0.16 0.18 0.21 0.30 0.39 0.42 0.40 0.38 0.39 0.40 0.41 0.41 0.36 0.33 0.28 0.22 0.17 0.15 0.15 0.17 0.14 0.12 0.09 0.08
0.05 0.05 0.05 0.03 0.03 0.03 0.04 0.03 0.03 0.03 0.03 0.03 0.06 0.12 0.17 0.23 0.23 0.22 0.24 0.27 0.31 0.34 0.36 0.36 0.36 0.35 0.36 0.36 0.36 0.33 0.27 0.22 0.21 0.22 0.23 0.30 0.25 0.15